[Date Prev][Date Next][Thread Prev][Thread Next] - [Date Index][Thread Index][Author Index]
2 Line ISS Keps 8-26
- Subject: [sarex] 2 Line ISS Keps 8-26
- From: "Dr Dave Larsen PhD" <doc@xxxxxxxxxxx>
- Date: Thu, 25 Aug 2005 19:23:07 -0700
ISS
1 25544U 98067A 05237.83690972 .00020550 00000-0 15775-3 0 2219
2 25544 051.6450 264.3355 0000804 028.1228 329.5722 15.72042427386636
----
Via the sarex mailing list at AMSAT.ORG courtesy of AMSAT-NA.
To unsubscribe, send "unsubscribe sarex" to Majordomo@amsat.org
AMSAT Home